Погода в Овате

Россия / Республика Калмыкия     46°51′06″N   44°22′22″E
темп.,
°C
ветер,
м/с
пор.,
м/с
влажн.,
%
обл.,
%
осадки,
мм/ч
давл.,
гПа
погр.,
м
16 апреля, пт
пт1600:00+11зсз597150 0.0 1017150
03:00+10зсз48815 0.0 1018137
06:00+9зсз48845 0.0 1018150
09:00+15сз565899 0.0 1019536
12:00+19сз554441 0.0 10181153
15:00+20сз44375 0.0 10181677
18:00+18с22475 0.0 101738
21:00+15сз2353100 0.0 101940
17 апреля, сб
сб1700:00+12ссз3483100 0.3 1020129
03:00+11ссв3377100 0.4 101926
06:00+12зсз3475100 0.1 102088
09:00+11ссз2292100 2.3 1021132
12:00+11зсз2392100 4.4 1021282
15:00+11зсз3487100 7.3 1021395
18:00+11сз2482100 0.1 1022253
21:00+10з228599 0.1 102229
18 апреля, вс
вс1800:00+10зсз3587100 0.0 1022122
03:00+8зсз348815 0.0 102263
06:00+8с118579 0.0 102112
09:00+12в1263100 0.0 1021479
12:00+16юв115499 0.0 10201311
15:00+15ююз4363100 0.1 1019728
18:00+13ююз2281100 0.3 1019186
21:00+12ю2387100 0.4 1020122
19 апреля, пн
пн1900:00+12в2382100 0.1 1019106
03:00+12юв2584100 0.3 1018194
06:00+12юв3685100 0.0 1018231
09:00+15ююв567099 0.0 1017532
12:00+17ю5565100 0.0 1016842
15:00+16юз4682100 1.4 1016467
18:00+15ю3588100 1.2 1015227
21:00+14ююв369698 3.1 1015210
20 апреля, вт
вт2000:00+14юв3793100 0.2 1015204
03:00+14вюв71481100 0.2 1012376
06:00+13вюв91875100 0.0 1011517
09:00+16юв111964100 0.0 1009812
12:00+20юв121750100 0.0 1009992
15:00+19вюв111548100 0.1 1008820
18:00+17юв121959100 0.8 1008519
21:00+15юз3668100 0.8 1013151